Location: Columbus
(29.5618°N, 96.6770°W)
Time: 22:59:01
(UTC-05:00)

Iridium 59 - Visible Passes

Search period start: 30 October 2014 00:00
Search period end: 08 November 2014 23:00
Orbit: 776 x 779 km, 86.4° (Epoch: 30 October)

Date Brightness Start Highest point End Pass type
(mag) Time Alt. Az. Time Alt. Az. Time Alt. Az.
30 Oct 7.2 21:15:12 10° SSW 21:16:19 16° SSW 21:16:19 16° SSW visible
31 Oct 5.8 20:41:24 10° S 20:44:41 40° S 20:44:41 40° S visible
01 Nov 5.2 20:08:16 10° SSE 20:13:10 44° E 20:13:31 43° ENE visible
01 Nov 7.7 21:51:10 10° WSW 21:54:01 15° W 21:54:11 15° WNW visible
02 Nov 6.1 18:35:54 10° SE 18:39:50 22° E 18:43:46 10° NE visible
02 Nov 6.8 20:15:49 10° SW 20:20:18 29° W 20:24:49 10° NNW visible
03 Nov 6.8 18:05:32 10° E 18:06:37 11° E 18:07:41 10° ENE visible
03 Nov 5.5 19:41:34 10° SSW 19:46:41 59° W 19:51:49 10° N visible
04 Nov 4.9 19:08:02 10° S 19:13:11 68° E 19:18:21 10° N visible
05 Nov 8.1 05:46:43 10° NE 05:49:14 14° E 05:51:44 10° ESE visible
05 Nov 5.6 18:35:10 10° SSE 18:39:47 33° E 18:44:25 10° NNE visible
05 Nov 7.4 20:16:47 10° SW 20:20:29 20° W 20:24:12 10° NW visible
06 Nov 6.4 18:03:15 10° ESE 18:06:30 17° E 18:09:44 10° NE visible
06 Nov 6.3 19:41:59 10° SSW 19:46:48 39° W 19:51:39 10° NNW visible
07 Nov 5.1 19:08:02 10° S 19:13:14 79° W 19:18:27 10° N visible
08 Nov 7.8 05:45:35 10° NNE 05:49:27 21° E 05:53:17 10° SE visible
08 Nov 5.1 18:34:45 10° SSE 18:39:46 51° E 18:44:47 10° NNE visible
08 Nov 8.0 20:18:30 10° WSW 20:20:42 13° W 20:22:56 10° NW visible
